Find OneWeb SL0290

NORAD ID: 49080 Int'l Des: 2021-075 Owner: ONEWEBN Country: UK Constellation: oneweb operational
LEOCIRCULARPOLARONEWEB_TYPE

現在のビュー

3D地球を読み込み中...

About OneWeb SL0290

OneWeb SL0290 (NORAD 49080) is a oneweb constellation satellite launched Aug 21, 2021 by ONEWEBN of UK. It operates in LEO, CIRCULAR, POLAR, ONEWEB_TYPE orbit with a mass of 148.00 kg.

OneWeb SL0290について

説明を読み込み中...

次回通過

Passes for default location (London). Set your location on the main map for personalized predictions.

高度履歴

Loading altitude history...

軌道要素

1 49080U 21075F 26169.08970621 .00000032 00000-0 48069-4 0 9999
2 49080 87.9142 5.6749 0001848 104.7015 255.4322 13.17649164233737
Epoch: Jun 18, 2026 • Age: 14 hours

現在のステータス

高度 1217.3 km
速度 7.24 km/s
衛星直下点 -57.40°S, 151.25°W
打ち上げ日 Aug 21, 2021
運用期間 4.8 years
タイプ internet

技術仕様

分類 Payload
質量 148.00 kg
乾燥質量 140.00 kg
総質量 148.00 kg
長さ 1.30 m
直径 1.00 m
スパン 5.00 m
形状 Trapezoid+2 pan
製造者 ONEWUS
バスタイプ ARROW
フェーズステータス In Orbit
所有者/国 ONEWEBN/UK

Most Searched